Other Public Products
Issued by NWS Grand Forks, ND

Home | Current Version | Previous Version | Graphics & Text | Print | Product List | Glossary On
Versions: 1 2 3 4 5 6 7 8 9 10 11 12 13 14 15 16 17 18 19 20 21 22 23 24 25 26 27 28 29 30 31 32 33 34 35 36 37 38 39 40 41 42 43 44 45 46 47 48 49 50
000
FPUS83 KFGF 171610
OPUFGF
PRAIRIE TO PINES WEATHER ROUNDUP
NATIONAL WEATHER SERVICE EASTERN NORTH DAKOTA/GRAND FORKS ND
1000 AM CST TUE JAN 17 2017

 **SATELLITE DATA USED TO AUGMENT SKY COVER AT AUTOMATED STATIONS**
 *****  WEATHER ACROSS EASTERN NORTH DAKOTA  *****

CITY           SKY/WX    TMP DP  RH WIND       PRES   REMARKS
GRAND FORKS    FAIR      11   6  81 S10       29.92S WCI  -3
GRAND FORKS AF FAIR      10   5  80 S8        29.91S WCI  -1
GRAND CITY NWS NOT AVBL
BUXTON         NOT AVBL
DEVILS LAKE    FAIR       9   6  88 S3        29.87F
FARGO          FAIR      10   7  87 S9        29.98R WCI  -3
WAHPETON ARPT  FAIR       7   3  85 SE3       30.01R
$$

 *****  WEATHER ACROSS CENTRAL AND WESTERN NORTH DAKOTA  *****

CITY           SKY/WX    TMP DP  RH WIND       PRES   REMARKS
JAMESTOWN      FAIR      14  11  87 W3        29.92S
BISMARCK       FAIR       5   2  87 SE5       29.94R WCI  -4
MINOT          FAIR      19  11  70 S8        29.79S WCI   9
MINOT AFB      NOT AVBL
GARRISON         N/A      9   5  84 S7        29.84F WCI  -2
WILLISTON      FAIR      17   9  70 S7        29.79F WCI   8
DICKINSON      FAIR      20  10  65 S15       29.81S WCI   6
HETTINGER      FAIR      16   6  65 W5        29.90S WCI   9
$$

 *****  OTHER OBSERVATIONS NORTHEAST NORTH DAKOTA  *****

CITY           SKY/WX    TMP DP  RH WIND       PRES   REMARKS
WALHALLA       NOT AVBL
LANGDON        NOT AVBL
CAVALIER         N/A     10   9  92 S8        29.85F WCI  -1
GRAFTON        FAIR       9   7  92 S9        29.92F WCI  -5
CANDO          NOT AVBL
FORT TOTTEN      N/A     18  15  88 S7        29.95S WCI   9
ROLLA            N/A    N/A N/A N/A MISG        N/A
RUGBY            N/A     12  10  92 S12       29.81F WCI  -2
 ***** THE ABOVE OBSERVATIONS ARE NON NWS ARE NOT QUALITY
        CONTROLLED AND MAY MIS-REPORT RAIN FOR SNOW...
$$

 *****  OTHER OBSERVATIONS SOUTHEAST NORTH DAKOTA *****

CITY           SKY/WX    TMP DP  RH WIND       PRES   REMARKS
COOPERSTOWN    FAIR       5   1  85 CALM      29.92S
VALLEY CITY    FAIR       7   7 100 S5        29.95S WCI  -2
OAKES          NOT AVBL
GWINNER        FAIR      12  10  92 SW9       29.98S WCI   0
SHEYENNE NWR     N/A     11   6  79 SW3       29.95S
BUFFALO        NOT AVBL
WYNDMERE       NOT AVBL
 ***** THE ABOVE OBSERVATIONS ARE NON NWS ARE NOT QUALITY
       CONTROLLED AND MAY MIS-REPORT RAIN FOR SNOW...
$$

  *****  WEATHER ACROSS NORTHERN MINNESOTA  *****

CITY           SKY/WX    TMP DP  RH WIND       PRES   REMARKS
FLAG ISLAND    FAIR       0  -4  85 S7        29.88F WCI -13
WARROAD        FAIR       9   3  78 S6        29.88F WCI  -1
ROSEAU         FAIR       7   3  85 S7        29.89F WCI  -5
HALLOCK        FAIR       5   1  85 S10       29.89S WCI -10
THF RVR FALLS  FLURRIES   8   5  87 S10       29.93S WCI  -6
HALSTAD        NOT AVBL
FOSSTON        FAIR      10   7  85 SW6       29.94R WCI   1
BAUDETTE       FAIR       6   5  95 SW3       29.89S
WASKISH        FAIR      12   9  85 CALM      29.91F
CROOKSTON      FAIR       7   3  85 S8        29.95S WCI  -6
$$
  *****  WEATHER ACROSS CENTRAL AND WEST MINNESOTA  *****

CITY           SKY/WX    TMP DP  RH WIND       PRES   REMARKS
BEMIDJI        FAIR       4   1  87 SE3       29.91F
PARK RAPIDS    FAIR       2  -2  83 CALM      29.93F FOG
WADENA         LGT SNOW   3   0  85 CALM      29.95F
DETROIT LAKES  FAIR       9   5  85 S5        29.94F WCI   0
MOORHEAD       MIX PCPN   3   0  85 SE5       29.99S WCI  -6
FERGUS FALLS   FAIR       7   1  78 SE5       30.03S WCI  -2
ELBOW LAKE     LGT SNOW   6   4  90 CALM      29.99S
MORRIS MN      FAIR      10   7  85 CALM      29.98F
STAPLES        FAIR       3   0  85 CALM      29.97R FOG
WHEATON        FAIR      16  12  86 CALM      30.02R
$$
  *****  WEATHER ELSEWHERE ACROSS MINNESOTA  *****

CITY           SKY/WX    TMP DP  RH WIND       PRES   REMARKS
DULUTH         FOG       28  25  88 CALM      29.93F VSB 1/8
INTRNTL FALLS  FAIR       7   4  87 CALM      29.91F
ELY            FAIR       3   1  92 CALM      29.92F
CLOQUET        FOG       21  19  93 CALM      29.94F VSB<1/4
BRAINERD       FAIR      11  10  96 CALM      29.96S FOG
HIBBING        FOG        6   5  95 CALM      29.94S VSB 1
ALEXANDRIA     FAIR      11  11 100 W3        29.97S
SAINT CLOUD    FOG       27  27 100 NW5       29.98S VSB 1/4 WCI  22
MINNEAPOLIS    CLOUDY    30  24  78 N7        29.98S WCI  23
$$

  *****  WEATHER ACROSS SOUTH DAKOTA  *****

CITY           SKY/WX    TMP DP  RH WIND       PRES   REMARKS
SIOUX FALLS    FAIR      16  13  88 W5        30.04R WCI   9
BROOKINGS      FAIR      17  13  84 CALM      30.00S
WATERTOWN      FAIR       4   3  96 SW3       29.98S
HURON          FAIR      11   9  92 CALM      30.04R
SISSETON         N/A     10   7  87 CALM      29.98R
ABERDEEN       FAIR       4  -1  80 S7        30.01S WCI  -8
MITCHELL       FAIR      16  12  84 W6        30.06S WCI   7
PIERRE         FAIR      14   9  80 CALM      30.00F
MOBRIDGE       FAIR      11   5  77 SE9       29.95S WCI  -2
RAPID CITY     FAIR      16   8  71 CALM      29.91F
$$

  *****  SOME WEATHER IN NEARBY STATES *****

CITY           SKY/WX    TMP DP  RH WIND       PRES   REMARKS
GLASGOW MT     FAIR      16  10  77 S12       29.73F WCI   3
GREAT FALLS MT FAIR      32  16  51 SW28      29.84R WCI  18
CHEYENNE WY      N/A    N/A N/A N/A MISG      30.03R
SCOTTSBLUFF NE FAIR      19  13  77 N3        30.05S
OMAHA NE       CLOUDY    27  22  81 NW9       30.10R WCI  18
DES MOINES IA  DRIZZLE   35  33  92 NW10      30.02R FOG
DAVENPORT IA   CLOUDY    34  34 100 W14       29.93S FOG     WCI  25
CHICAGO IL     CLOUDY    37  36  96 W9        29.86R
EAU CLAIRE WI  CLOUDY    34  33  96 CALM      29.91S FOG
LA CROSSE WI   CLOUDY    36  33  89 NW6       29.90S FOG
$$

  *****  SOME NATIONAL WEATHER *****

CITY           SKY/WX    TMP DP  RH WIND       PRES   REMARKS
LA GUARDIA NY  LGT RAIN  42  32  67 E8        30.21F
RALEIGH NC     CLOUDY    54  51  90 SW13      30.25S FOG
ATLANTA GA     PTSUNNY   65  54  67 SW9       30.24R
NEW ORLEANS LA PTSUNNY   72  70  93 S9        30.16S FOG
OKLAHOMA CITY  FAIR      43  33  68 N14       30.18R
ALBUQUERQUE NM FAIR      39  36  89 NW7       30.16R
SALT LAKE CITY FAIR      22  19  89 N3        30.30R
LOS ANGELES CA FAIR      50  41  71 E3        30.12R
BOISE ID       FAIR       2  -2  83 CALM      30.35S FOG
SEATTLE WA     LGT RAIN  40  38  93 S5        29.77F
$$

*** WEATHER ACROSS MANITOBA...SASKATCHEWAN AND ONTARIO ***
                ***ONTARIO***

CITY           SKY/WX    TMP DP  RH WIND       PRES   REMARKS
GERALDTON      CLOUDY    23  21  93 VRB2      29.93F
THUNDER BAY    CLOUDY    27  27 100 SW7       29.98S FOG     WCI  19
SIOUX LOOKOUT  PTSUNNY   10   9  92 S6        29.86S WCI   1
TORONTO        LGT RAIN  34  32  93 E12G24    29.92F FOG
BIG TROUT LK   CLOUDY    19  16  86 S9        29.66F WCI   9
PICKLE LAKE    MOSUNNY   14  10  85 S10       29.81F WCI   1
DRYDEN         SUNNY     14  12  92 S8        29.85F WCI   3
KENORA         PTSUNNY   10   7  85 S10       29.84F WCI  -3
$$
                *** MANITOBA***

CITY           SKY/WX    TMP DP  RH WIND       PRES   REMARKS
BRANDON        PTSUNNY    9   5  85 W6        29.73F WCI  -1
DAUPHIN        CLEAR     32  16  51 SW15G22   29.57F WCI  22
ISLAND LAKE    MOCLDY    30  21  69 S9G17     29.55F WCI  22
PILOT MOUND      N/A     10   9  92 S13         N/A  WCI  -5
THE PAS        CLOUDY    32  19  59 S13       29.34F WCI  22
THOMPSON       CLOUDY    30  23  74 S8        29.28F WCI  23
WINNIPEG       MOSUNNY   10   7  85 S14       29.81F WCI  -5
LYNN LAKE      CLOUDY    28  27  93 SW10      29.14S WCI  19
CHURCHILL      CLOUDY    25  21  86 SW14      29.14F WCI  13
GILLAM         CLOUDY    32  25  74 SW13G23   29.30F WCI  22
$$
                ***SASKATCHEWAN***

CITY           SKY/WX    TMP DP  RH WIND       PRES   REMARKS
ESTEVAN        MOCLDY    18  10  73 SW17G26   29.67F WCI   2
KINDERSLEY     CLOUDY    37  30  75 SW14      29.47R
LLOYDMINSTER   CLOUDY    34  28  80 W9        29.37S
PRINCE ALBERT  CLOUDY    25  19  80 SW3       29.38R
REGINA         MOCLDY    28  21  74 S9        29.55F WCI  20
YORKTON        CLEAR     23  14  68 S15G21    29.51F WC1F1C2F2C3F3C4F4C5F5C6F6C7F7C8F8C9F9CaFaCbFbCcFcCdFdCe!



USA.gov is the U.S. government's official web portal to all federal, state and local government web resources and services.